Tracking 25711 objects as of 22-May-2022
HD Live streaming from Space Station
objects crossing your sky now

XTAR-EUR

Track XTAR-EUR now!
XTAR-EUR is classified as:


NORAD ID: 28542
Int'l Code: 2005-005A
Perigee: 35,779.6 km
Apogee: 35,808.0 km
Inclination: 0.5 °
Period: 1,436.1 minutes
Semi major axis: 42164 km
RCS: 6.3095 m2 (large)
Launch date: February 12, 2005
Source: United States (US)
Launch site: FRENCH GUIANA (FRGUI)

X-band; designed to be compatible with U.S. and NATO SATCOM systems.
aabbcc
Your satellite tracking list
Your tracking list is empty




NASA's NSSDC Master Catalog

Two Line Element Set (TLE):
1 28542U 05005A   22142.25328955  .00000142  00000-0  00000-0 0  9998
2 28542   0.5136  94.7787 0003378 330.4074 294.8444  1.00271609 63282
Source of the keplerian elements: AFSPC